Location: PSU-Greenbush Astrophysical Observatory
(37.5140°N, 94.9880°W)
Time: 19:48:06
(UTC-06:00)

deb Explorer IX - Pass Details

Date: 28 January 2020
Orbit: 549 x 1099 km, 38.8° (Epoch: 20 February)

Event Time Altitude Azimuth Distance (km) Brightness Sun altitude
Rises 19:00:04 0° 212° (SSW) 3,375 ? -16.2°
Reaches altitude 10° 19:02:47 10° 200° (SSW) 2,535 ? -16.7°
Maximum altitude 19:07:56 28° 143° (SE) 1,707 ? -17.7°
Enters shadow 19:10:13 23° 112° (ESE) 1,964 ? -18.2°
Drops below altitude 10° 19:13:38 10° 87° (E) 2,835 - -18.8°
Sets 19:16:51 0° 77° (ENE) 3,846 - -19.4°
